TimeEST,TemperatureF,Dew PointF,Humidity,Sea Level PressureIn,VisibilityMPH,Wind Direction,Wind SpeedMPH,Gust SpeedMPH,PrecipitationIn,Events,Conditions,WindDirDegrees,DateUTC
12:54 AM,36.0,30.0,79,30.36,10.0,SW,3.5,-,N/A,,Clear,230,2012-11-30 05:54:00
1:54 AM,37.0,32.0,82,30.37,10.0,SW,4.6,-,N/A,,Clear,220,2012-11-30 06:54:00
2:54 AM,35.1,32.0,89,30.37,10.0,SW,3.5,-,N/A,,Clear,220,2012-11-30 07:54:00
3:50 AM,28.4,26.6,93,30.36,1.8,Calm,Calm,-,N/A,,Clear,0,2012-11-30 08:50:00
3:54 AM,28.9,26.1,89,30.36,1.5,Calm,Calm,-,N/A,,Clear,0,2012-11-30 08:54:00
4:04 AM,28.4,26.6,93,30.36,3.0,Calm,Calm,-,N/A,,Clear,0,2012-11-30 09:04:00
4:54 AM,27.0,25.0,92,30.36,3.0,Calm,Calm,-,N/A,,Clear,0,2012-11-30 09:54:00
5:33 AM,26.6,24.8,93,30.35,2.0,Calm,Calm,-,N/A,,Clear,0,2012-11-30 10:33:00
5:42 AM,26.6,24.8,93,30.36,4.0,Calm,Calm,-,N/A,,Clear,0,2012-11-30 10:42:00
5:53 AM,26.1,23.0,88,30.37,1.8,Calm,Calm,-,N/A,,Clear,0,2012-11-30 10:53:00
6:03 AM,26.6,23.0,86,30.37,0.5,Calm,Calm,-,N/A,Fog,Light Freezing Fog,0,2012-11-30 11:03:00
6:38 AM,24.8,21.2,86,30.38,1.8,Calm,Calm,-,N/A,,Mostly Cloudy,0,2012-11-30 11:38:00
6:45 AM,24.8,23.0,93,30.39,0.8,Calm,Calm,-,N/A,,Mist,0,2012-11-30 11:45:00
6:54 AM,25.0,23.0,92,30.39,0.2,Calm,Calm,-,N/A,Fog,Light Freezing Fog,0,2012-11-30 11:54:00
7:54 AM,26.1,25.0,96,30.40,0.2,Calm,Calm,-,N/A,Fog,Light Freezing Fog,0,2012-11-30 12:54:00
8:02 AM,28.4,26.6,93,30.39,0.5,Calm,Calm,-,N/A,Fog,Light Freezing Fog,0,2012-11-30 13:02:00
8:05 AM,28.4,26.6,93,30.39,1.0,Calm,Calm,-,N/A,,Mist,0,2012-11-30 13:05:00
8:11 AM,28.4,26.6,93,30.39,0.2,Calm,Calm,-,N/A,,Mist,0,2012-11-30 13:11:00
8:54 AM,33.1,32.0,96,30.40,0.2,Calm,Calm,-,N/A,Fog,Fog,0,2012-11-30 13:54:00
9:54 AM,39.9,39.0,97,30.40,0.2,Calm,Calm,-,N/A,Fog,Fog,0,2012-11-30 14:54:00
10:01 AM,39.2,39.2,100,30.39,3.0,Calm,Calm,-,N/A,,Scattered Clouds,0,2012-11-30 15:01:00
10:06 AM,41.0,39.2,93,30.39,10.0,Calm,Calm,-,N/A,,Scattered Clouds,0,2012-11-30 15:06:00
10:54 AM,48.0,35.1,61,30.39,10.0,Calm,Calm,-,N/A,,Clear,0,2012-11-30 15:54:00
11:54 AM,48.9,34.0,56,30.37,10.0,Calm,Calm,-,N/A,,Scattered Clouds,0,2012-11-30 16:54:00
12:54 PM,50.0,32.0,50,30.36,10.0,SE,6.9,-,N/A,,Clear,140,2012-11-30 17:54:00
1:54 PM,50.0,32.0,50,30.35,10.0,SE,5.8,-,N/A,,Clear,140,2012-11-30 18:54:00
2:54 PM,48.9,33.1,54,30.35,10.0,ESE,8.1,-,N/A,,Mostly Cloudy,110,2012-11-30 19:54:00
3:54 PM,46.9,37.0,68,30.36,10.0,East,5.8,-,N/A,,Overcast,80,2012-11-30 20:54:00
4:54 PM,42.1,36.0,79,30.36,8.0,East,3.5,-,N/A,,Clear,90,2012-11-30 21:54:00
5:54 PM,39.9,36.0,86,30.37,7.0,ENE,4.6,-,N/A,,Partly Cloudy,60,2012-11-30 22:54:00
6:54 PM,41.0,37.0,86,30.38,7.0,East,3.5,-,N/A,,Mostly Cloudy,80,2012-11-30 23:54:00
7:54 PM,41.0,36.0,82,30.39,7.0,Calm,Calm,-,N/A,,Mostly Cloudy,0,2012-12-01 00:54:00
8:54 PM,39.0,35.1,86,30.40,7.0,Calm,Calm,-,N/A,,Scattered Clouds,0,2012-12-01 01:54:00
9:54 PM,39.9,37.9,93,30.38,6.0,Calm,Calm,-,N/A,,Overcast,0,2012-12-01 02:54:00
10:54 PM,41.0,37.9,89,30.39,7.0,Calm,Calm,-,N/A,,Mostly Cloudy,0,2012-12-01 03:54:00
11:54 PM,37.9,35.1,89,30.39,7.0,Calm,Calm,-,N/A,,Clear,0,2012-12-01 04:54:00